CYYC

Calgary International Airport

Airport
ICAO code
CYYC
IATA Code
YYC
Summary
ICAO Region
NAM
ICAO Territory
Location

Calgary, Alberta

Serving
Calgary
Elevation
3557 ft
Coordinates
51° 7' 7" N , 114° 1' 14" W
KCC
Airport LOS
Parallel Runway Operation
Metar
Observation
CYYC 312000Z VRB02KT 15SM FEW060 FEW160 OVC300 M06/M10 A2978 RMK SC1AC2CI6 SC TR SLP153
Station
Calgary International, Alta.
Date/Time
2023-01-31 20:00:00
Wind speed
02 kts
Lowest cloud amount
few clouds
Temperature
-6°C
Dew point
-10°C
Humidity
73%
Weather condition
n/a

Description

International airport serving Calgary, Alberta.

Climatology

Humid Continental climate (Köppen climate classification Dfb) - Variable weather patterns and a large seasonal temperature variance. Summers are often warm and humid with frequent thunderstorms and winters can be very cold with frequent snowfall and persistent snow cover.

Runways

Designator Length Width Surface Rops
7/25 1890 46 ASP Yes/Yes
10/28 2438 61 ASP Yes/Yes
16/34 3863 61 ASP Yes/Yes

SKYbrary Partners:

Safety knowledge contributed by: